This is the latest recevied weather packets stored in our database for station/object K3MV-13. If no packets are shown the sender has not sent any weather packets the latest 10 day(s).
| Time | Temp. | Humidity | Pressure | Rain* | Wind** | Luminosity | Snow |
|---|---|---|---|---|---|---|---|
| 1777893763 | 8.89° C | 63% | 1013 hPa | 0 mm | - | 73 W/m² | - |
| 1777893460 | 8.89° C | 62% | 1013 hPa | 0 mm | - | 74 W/m² | - |
| 1777893157 | 7.78° C | 64% | 1013 hPa | 0 mm | - | 70 W/m² | - |
| 1777892853 | 7.22° C | 63% | 1013 hPa | 0 mm | - | 49 W/m² | - |
| 1777892550 | 7.22° C | 63% | 1013.2 hPa | 0 mm | - | 34 W/m² | - |
| 1777892245 | 7.22° C | 63% | 1013 hPa | 0 mm | - | 31 W/m² | - |
| 1777891942 | 7.22° C | 62% | 1013.1 hPa | 0 mm | - | 26 W/m² | - |
| 1777891640 | 7.22° C | 62% | 1013.2 hPa | 0 mm | - | 21 W/m² | - |
| 1777891336 | 6.67° C | 63% | 1013.1 hPa | 0 mm | - | 17 W/m² | - |
| 1777891032 | 6.67° C | 63% | 1013.1 hPa | 0 mm | - | 13 W/m² | - |
| 1777890731 | 6.67° C | 62% | 1013 hPa | 0 mm | - | 10 W/m² | - |
| 1777890427 | 6.67° C | 61% | 1013.1 hPa | 0 mm | - | 8 W/m² | - |
| 1777890123 | 6.67° C | 61% | 1012.9 hPa | 0 mm | - | 6 W/m² | - |
| 1777889821 | 6.67° C | 61% | 1013.1 hPa | 0 mm | - | 4 W/m² | - |
| 1777889518 | 6.67° C | 61% | 1013.2 hPa | 0 mm | - | 2 W/m² | - |
| 1777889215 | 7.22° C | 60% | 1013.2 hPa | 0 mm | - | 1 W/m² | - |
| 1777888914 | 7.22° C | 60% | 1013.2 hPa | 0 mm | - | 1 W/m² | - |
| 1777888609 | 7.22° C | 60% | 1013.1 hPa | 0 mm | - | 0 W/m² | - |
| 1777888305 | 7.22° C | 60% | 1013.2 hPa | 0 mm | - | 0 W/m² | - |
| 1777888002 | 7.22° C | 60% | 1013.2 hPa | 0 mm | - | 0 W/m² | - |
| 1777887699 | 7.78° C | 59% | 1013.4 hPa | 0 mm | - | 0 W/m² | - |
| 1777887396 | 7.22° C | 59% | 1013.2 hPa | 0 mm | - | 0 W/m² | - |
| 1777887092 | 7.22° C | 60% | 1013.2 hPa | 0 mm | - | 0 W/m² | - |
| 1777886788 | 6.67° C | 61% | 1013.3 hPa | 0 mm | - | 0 W/m² | - |
| 1777886484 | 6.67° C | 63% | 1013.5 hPa | 0 mm | - | 0 W/m² | - |
* Rain latest hour (hover to see other rain measurements)
** Current wind speed in m/s (hover to see current wind gust speed)